Regional Weather Roundup
Issued by NWS Charleston, SC

Current Version | Previous Version | Graphics & Text | Print | Product List | Glossary On
Versions: 1 2 3 4 5 6 7 8 9 10 11 12 13 14 15 16 17 18 19 20 21 22 23 24 25 26 27 28 29 30 31 32 33 34 35 36 37 38 39 40 41 42 43 44 45 46 47 48 49 50
000
ASUS42 KCHS 270010
RWRCHS

REGIONAL WEATHER ROUNDUP
NATIONAL WEATHER SERVICE CHARLESTON SC
700 PM EST MON JAN 26 2015

NOTE: "FAIR" INDICATES FEW OR NO CLOUDS BELOW 12,000 FEET WITH NO
SIGNIFICANT WEATHER AND/OR OBSTRUCTIONS TO VISIBILITY.

NOT ALL STATIONS ARE QUALITY CONTROLLED BY THE NATIONAL
WEATHER SERVICE. USE DATA WITH CAUTION...ESPECIALLY
DEWPOINT OBSERVATIONS.

SCZ027-030-031-034>040-042>050-270100-
...SOUTHEAST SOUTH CAROLINA...

CITY           SKY/WX    TMP DP  RH WIND       PRES   REMARKS
N CHARLESTON   MOCLDY    52  38  58 W12       29.72R
6HR MIN TEMP:  51; 6HR MAX TEMP:  58; 6HR PCP: TRACE;

WATERFRONT PRK   N/A     52 N/A N/A W10G17      N/A
MOUNT PLEASANT CLOUDY   N/A N/A N/A CALM      29.71R
PINOPOLIS      NOT AVBL
MONCKS CORNER  LGT RAIN  50  43  76 CALM      29.70R
SUMMERVILLE    NOT AVBL
BEAUFORT MCAS  CLOUDY    52  35  52 W18G28    29.77R
6HR MIN TEMP:  52; 6HR MAX TEMP:  57;

BEAUFORT ARPT  CLOUDY    52  37  58 W14G23    29.76R
HILTON HEAD IS MOCLDY    52  37  58 W13G20    29.78R
WALTERBORO     CLEAR     52  32  46 W13G25    29.75R
ALLENDALE      FAIR      48  34  57 W9        29.78R

...SOUTHERN MIDLANDS AND PEE DEE...

CITY           SKY/WX    TMP DP  RH WIND       PRES   REMARKS
GEORGETOWN     NOT AVBL
KINGSTREE      NOT AVBL
ORANGEBURG     MOCLDY    50  34  54 W17G23    29.73R
6HR MIN TEMP:  50; 6HR MAX TEMP:  59;

BARNWELL       FAIR      46  34  61 W10G18    29.78R
AIKEN          FAIR      43  34  70 W12G21    29.80R
MANNING        NOT AVBL
COLUMBIA       MOCLDY    52  35  52 W18G29    29.72R
6HR MIN TEMP:  52; 6HR MAX TEMP:  59; 6HR PCP: TRACE;

SUMTER         CLOUDY    49  38  66 W5        29.68R
6HR MIN TEMP:  49; 6HR MAX TEMP:  59; 6HR PCP: TRACE;

FLORENCE       CLOUDY    50  39  66 NW7       29.68R
6HR MIN TEMP:  50; 6HR MAX TEMP:  57; 6HR PCP: TRACE;

MYRTLE BEACH   MOCLDY    48  43  81 NW9       29.68R
N MYRTLE BEACH CLOUDY    49  44  83 NW7       29.65R
6HR MIN TEMP:  49; 6HR MAX TEMP:  60; 6HR PCP: TRACE;


$$

GAZ063-065-086>088-099>101-113>116-118-119-134>141-150-270100-
...SOUTHEAST GEORGIA...

CITY           SKY/WX    TMP DP  RH WIND       PRES   REMARKS
SAVANNAH ARPT  MOCLDY    50  36  58 W17G25    29.80R
6HR MIN TEMP:  50; 6HR MAX TEMP:  56;

HUNTER AAF     MOCLDY    49  38  66 W15G21    29.78R
6HR MIN TEMP:  48; 6HR MAX TEMP:  56;

FORT STEWART   MOCLDY    50  36  58 W13G24    29.81R
6HR MIN TEMP:  50; 6HR MAX TEMP:  55;

STATESBORO     CLOUDY    47  34  60 NW17G30   29.82R
SYLVANIA       CLOUDY    48  37  67 NW16G22   29.81R
CLAXTON        FAIR      48  36  61 W24G31    29.83R

...CSRA...CENTRAL AND FAR SOUTHEAST GEORGIA...

CITY           SKY/WX    TMP DP  RH WIND       PRES   REMARKS
THOMSON        CLEAR     43  34  71 W12G23    29.88R
AUGUSTA-BUSH   CLEAR     44  31  60 W21G26    29.81R
6HR MIN TEMP:  44; 6HR MAX TEMP:  58;

AUGUSTA-DANIEL CLEAR     45  31  58 W12G24    29.81R
SWAINSBORO     MOCLDY    46  27  46 NW14G28   29.86R
VIDALIA        CLOUDY    46  36  66 NW15G21   29.85R
EASTMAN        MOCLDY    45  34  66 NW10G20   29.93R
HAZLEHURST     MOCLDY    48  37  65 NW6G20    29.87R
ALMA           MOCLDY    49  35  58 NW18G24   29.87R
6HR MIN TEMP:  49; 6HR MAX TEMP:  52;

WAYCROSS       CLOUDY    53  40  63 W12       29.88R
JESUP          CLOUDY    52  41  66 NW18      29.85R
BAXLEY         MOCLDY    50  36  57 NW18G24   29.86R
BRUNSWICK      CLOUDY    52  36  54 W8G16     29.85R
SAINT SIMONS   CLOUDY    51  36  56 W13G21    29.85R
6HR MIN TEMP:  51; 6HR MAX TEMP:  58;


$$

SCZ027-028-034-036>038-045-046-048>050-GAZ119-141-270100-
...LAKE AND SUPPLEMENTAL COASTAL OBSERVATIONS...

STATION/POSITION TIME  TEMP    WIND        PRES    WAVE   SWELL
                       AIR SEA DIR/SP/G            HT/PER HT/PER/DIR
                 (UTC) (F)     (DEG/KT/KT) (MB)    (FT/S) (FT/S/D)
UPR LAKE MARION  NOT AVBL
WINYAH BAY       NOT AVBL
LAKE MURRAY      2300   52     280/ 14/ 18 1005.4R
ACE BASIN NERRS  NOT AVBL
FORT PULASKI     0000   51 53  270/ 19/ 24 1009.0R
SAPELO ISLAND    NOT AVBL

$$

ANZ835-935-AMZ111-154-330-350-352-354-370-450-454-472-270100-
...C-MAN AND BUOY OBSERVATIONS...

STATION/POSITION TIME  TEMP    WIND        PRES    WAVE   SWELL
                       AIR SEA DIR/SP/G            HT/PER HT/PER/DIR
                 (UTC) (F)     (DEG/KT/KT) (MB)    (FT/S) (FT/S/D)
BUOY 41004       0000   57 68  270/ 27/ 33 1004.3R   7/ 7   2/13
BUOY 41008       0000   52 55  290/ 23/ 27 1009.6R   4/ 5
FOLLY BEACH CMAN 2300   51     250/  7/ 10 1005.8R
CAPERS NEARSHORE 2300   53     270/ 10/ 14   N/A
FRIPP NEARSHORE  2300   54     290/ 23/ 25   N/A


STATION/POSITION TIME  TEMP    WIND        PRES    WAVE   SWELL
                       AIR SEA DIR/SP/G            HT/PER HT/PER/DIR
                 (UTC) (F)     (DEG/KT/KT) (MB)    (FT/S) (FT/S/D)
5E ST. MARYS GA  0000      58                N/A     3/ 4
FRYING PAN BUOY  0000   56 66  280/ 21/ 27 1002.8R   6/ 8   2/190/ 8
BUOY 41025       0000   54 70  310/ 19/ 23  999.0R   4/ 7   3/170/ 7
CAPE LOOKOUT NC  2300   51     330/  9/ 10 1000.7R
BUOY 41002       NOT AVBL
BUOY 41010       0000   66 76  280/ 25/ 35 1008.8R  13/ 8
ST AUGUSTINE FL  0000   54     310/ 10/ 12 1012.2R


$$



USA.gov is the U.S. government's official web portal to all federal, state and local government web resources and services.